Regional Weather Roundup
Issued by NWS

Home | Current Version | Previous Version | Text Only | Print | Product List | Glossary Off
Versions: 1 2 3 4 5 6 7 8 9 10 11 12 13 14 15 16 17 18 19 20 21 22 23 24 25 26 27 28 29 30 31 32 33 34 35 36 37 38 39 40 41 42 43 44 45 46 47 48 49 50

000
ASUS45 KBOU 161207
RWRCO

WEATHER ROUNDUP FOR COLORADO
NATIONAL WEATHER SERVICE DENVER/BOULDER CO
500 AM MST MON JAN 16 2017

NOTE: "FAIR" INDICATES FEW OR NO CLOUDS BELOW 12000 FEET WITH NO
SIGNIFICANT WEATHER AND/OR OBSTRUCTIONS TO VISIBILITY.

COZ001>005-013-030-031-161300-
...NORTHWEST COLORADO...

CITY           SKY/WX    TMP DP  RH WIND       PRES   REMARKS
CRAIG          MOCLDY    13  10  88 SW3       30.09R
HAYDEN         CLOUDY    16  10  79 W6        30.06R WCI   7
MEEKER         FAIR      17  14  88 CALM      30.06R
MOUNT WERNER   NOT AVBL
STEAMBOAT SPGS CLOUDY    19  17  93 CALM      30.04R
WALDEN           N/A    N/A N/A N/A CALM      30.00S
$$

COZ006>008-011-161300-
...WEST CENTRAL VALLEYS...

CITY           SKY/WX    TMP DP  RH WIND       PRES   REMARKS
GRAND JUNCTION FAIR      32  22  66 E5        29.99R WCI  27
MONTROSE       CLOUDY    30  28  92 SE7       30.00S WCI  23
EAGLE          LGT SNOW  28  26  92 CALM      30.00R FOG
RIFLE          MOCLDY    28  18  66 W6        30.02R WCI  22
DELTA          CLOUDY    34  31  87 N5        29.98S WCI  30
NUCLA          CLOUDY    32  28  86 E3        29.98S
$$

COZ017>023-064>068-161300-
...SOUTHWEST COLORADO...

CITY           SKY/WX    TMP DP  RH WIND       PRES   REMARKS
DURANGO        FLURRIES  32  30  92 SW5       29.86S WCI  27
CORTEZ         CLOUDY    34  32  92 NW9       29.90F WCI  27
PAGOSA SPRINGS LGT SNOW  32  32 100 CALM      29.88R
TELLURIDE      CLOUDY    26  25  99 W6        29.93S WCI  19
WOLF CREEK PAS CLOUDY    21  21 100 N5        29.94S WCI  15
$$

COZ009-010-012-014-032>034-037-058>063-161300-
...CENTRAL COLORADO...

CITY           SKY/WX    TMP DP  RH WIND       PRES   REMARKS
ASPEN          CLOUDY    26  25  96 NW5       29.94R FOG     WCI  20
BUENA VISTA    CLOUDY    29  28  95 CALM      29.88S FOG
COPPER MTN     LGT SNOW  25  19  80 MISG      29.94R
BERTHOUD PASS  NOT AVBL
COTTONWOOD PAS LGT SNOW  32  30  93 E3        29.89S
GUNNISON       LGT SNOW  22  21  96 CALM      29.92R FOG
KREMMLING      FLURRIES  27  23  86 CALM      29.99R
LEADVILLE      CLOUDY    23  20  88 NW7       29.89R WCI  15
MONARCH PASS   LGT SNOW  23  21  93 MISG      30.01S
SALIDA         CLOUDY    32  32  99 CALM      29.96R
SUNLIGHT       LGT SNOW  21  19  93 CALM      29.99R
WILKERSON PASS CLOUDY   N/A N/A N/A NE13G21   29.93R HAZE
$$

COZ069>075-161300-
...SAN LUIS VALLEY/SANGRE DE CRISTO MOUNTAINS...

CITY           SKY/WX    TMP DP  RH WIND       PRES   REMARKS
ALAMOSA        LGT SNOW  31  30  96 CALM      29.85S FOG
LA VETA PASS   LGT SNOW  27  23  86 E6        29.87S WCI  20
SAGUACHE       MIX PCPN  32  30  93 NW9       29.86S WCI  24
$$

COZ035-036-038>040-161300-
...NORTHERN COLORADO FRONT RANGE...

CITY           SKY/WX    TMP DP  RH WIND       PRES   REMARKS
DENVER INTL AP LGT SNOW  28  26  92 N16       29.96S FOG     WCI  16
DMNS CITY PARK   N/A     28  28 100 N5G10     29.98S WCI  23
AURORA         LGT SNOW  27  27 100 N16       29.97R FOG     WCI  15
FRONT RANGE AP LGT SNOW  30  28  93 N15       29.97R WCI  19
ERIE MUNI ARPT LGT SNOW  30  29  98 CALM      29.99R
BOULDER MUN AP LGT SNOW  30  30 100 SE3       29.98R
CENTENNIAL     LGT SNOW  27  26  96 N8        29.96R VSB 1   WCI  19
BROOMFIELD     LGT SNOW  30  30 100 CALM      29.98R
FORT COLLINS   CLOUDY    34  30  86 N16       29.98R WCI  23
LONGMONT       LGT SNOW  33  32  96 CALM      30.00R VSB 1
$$

COZ041-046-047-076>085-087-088-161300-
...PIKES PEAK/PALMER DIVIDE AND SOUTHERN FOOTHILLS...

CITY           SKY/WX    TMP DP  RH WIND       PRES   REMARKS
COLO. SPRINGS  LGT SNOW  31  24  75 NW20G30   29.88S WCI  19
A. F. ACADEMY  MIX PCPN  28  25  86 N20       29.89R FOG     WCI  15
SCHRIEVER AFB  NOT AVBL
ELLICOTT       SNOW     N/A N/A N/A N23G33    29.84S
FALCON         LGT SNOW  28  23  80 N26G36    29.86R WCI  13
FORT CARSON    LGT SNOW  30  29  93 NE17G24   29.87S WCI  19
LIMON          LGT SNOW  27  25  92 NW17      29.89S FOG     WCI  14
MONUMENT HILL  LGT SNOW  25  23  93 NW13      29.93S WCI  13
TRINIDAD       LGT SNOW  32  30  92 N6        29.87S VSB 1   WCI  26
$$

COZ042>045-048>051-090-091-161300-
...NORTHEAST COLORADO...

CITY           SKY/WX    TMP DP  RH WIND       PRES   REMARKS
GREELEY ARPT   FLURRIES  33  26  75 N18       29.99R WCI  22
AKRON          MIX PCPN  28  26  92 N16       29.91F FOG     WCI  16
BURLINGTON     MIX PCPN  30  28  92 N15       29.87F FOG     WCI  19
WRAY           NOT AVBL
STERLING       LGT SNOW  32  30  93 N9        29.95S WCI  24
HOLYOKE        LGT SNOW  34  32  93 N8        29.94S WCI  27
FORT MORGAN    LGT SNOW  30  29  94 N13       29.96R WCI  20
$$

COZ086-089-092>099-161300-
...SOUTHEAST COLORADO...

CITY           SKY/WX    TMP DP  RH WIND       PRES   REMARKS
PUEBLO         SNOW      33  32  96 S3        29.89S VSB 1/2
LA JUNTA       LGT SNOW  32  30  92 W7        29.88F FOG     WCI  26
LAMAR          LGT SNOW  32  30  92 NW12      29.85R VSB 1   WCI  23
SPRINGFIELD      N/A     29  29 100 NW18      29.81F WCI  16
$$



USA.gov is the U.S. government's official web portal to all federal, state and local government web resources and services.